Weather History for Karlovy Vary, Czech Republic

Change the Weather History Date:

Monday, December 2, 2013

  Actual Average (EDQM) Record (EDQM)
Temperature  
Mean Temperature 34 °F -  
Max Temperature 41 °F 35 °F 50 °F (2011)
Min Temperature 28 °F 30 °F 6 °F (2010)
Degree Days  
Heating Degree Days 30    
Moisture  
Dew Point 30 °F    
Average Humidity 83    
Maximum Humidity 100    
Minimum Humidity 61    
Precipitation  
Precipitation 0.00 in - - ()
Sea Level Pressure  
Sea Level Pressure 30.48 in    
Wind  
Wind Speed 4 mph ()    
Max Wind Speed 9 mph    
Max Gust Speed -    
Visibility 6.1 miles    
Events Fog    
Averages and records for this station are not official NWS values.
T = Trace of Precipitation, MM = Missing Value Source: Averaged Metar Reports

Daily Weather History Graph

Daily Weather History Graph

Search for Another Location

Airport:

Trip Planner

Search our weather history database for the weather conditions in past years. The results will help you decide how hot, cold, wet, or windy it might be!

Date:

Astronomy

Dec. 02, 2013 Rise Set
Actual Time 7:47 AM CET 4:08 PM CET
Civil Twilight 7:09 AM CET 4:45 PM CET
Nautical Twilight 6:28 AM CET 5:26 PM CET
Astronomical Twilight 5:49 AM CET 6:05 PM CET
Moon 6:48 AM CET (12/2) 3:59 PM CET (12/2)
Length of Visible Light 9h 36m
Length of Day
8h 20m
Waning Crescent, 0% of the Moon is Illuminated
Dec 2
Waning Crescent
Dec 3
New
Dec 9
First Quarter
Dec 17
Full
Dec 25
Last Quarter

Hourly Weather History & Observations

Time (CET) Temp. Windchill Dew Point Humidity Pressure Visibility Wind Dir Wind Speed Gust Speed Precip Events Conditions
12:00 AM 35.6 °F 31.7 °F 35.6 °F 100% 30.33 in 4.3 mi West 4.6 mph - N/A   Mostly Cloudy
1:00 AM 35.6 °F 32.8 °F 33.8 °F 93% 30.33 in 6.2 mi WNW 3.5 mph - N/A   Overcast
2:00 AM 35.6 °F - 33.8 °F 93% 30.36 in 6.2 mi Variable 2.3 mph - N/A   Mostly Cloudy
3:00 AM 37.4 °F - 32.0 °F 81% 30.36 in 6.2 mi Variable 2.3 mph - N/A   Overcast
4:00 AM 35.6 °F - 32.0 °F 87% 30.39 in 6.2 mi Calm Calm - N/A   Overcast
5:00 AM 35.6 °F - 32.0 °F 87% 30.39 in 6.2 mi Variable 1.2 mph - N/A   Overcast
6:00 AM 35.6 °F 32.8 °F 30.2 °F 81% 30.42 in 6.2 mi NE 3.5 mph - N/A   Overcast
7:00 AM 33.8 °F - 30.2 °F 87% 30.42 in 6.2 mi Variable 2.3 mph - N/A   Scattered Clouds
7:30 AM 30.2 °F - 28.4 °F 93% 30.45 in 6.2 mi Variable 2.3 mph - N/A Fog Patches of Fog
8:00 AM 30.2 °F - 28.4 °F 93% 30.45 in 6.2 mi East 2.3 mph - N/A Fog Patches of Fog
8:30 AM 30.2 °F - 28.4 °F 93% 30.48 in 6.2 mi ESE 2.3 mph - N/A Fog Patches of Fog
9:00 AM 32.0 °F 28.7 °F 30.2 °F 93% 30.48 in 6.2 mi ESE 3.5 mph - N/A Fog Patches of Fog
9:30 AM 33.8 °F 30.8 °F 32.0 °F 93% 30.48 in 6.2 mi ENE 3.5 mph - N/A   Partly Cloudy
10:00 AM 35.6 °F 31.7 °F 32.0 °F 87% 30.51 in 6.2 mi NE 4.6 mph - N/A   Partly Cloudy
10:30 AM 37.4 °F 33.8 °F 32.0 °F 81% 30.51 in 6.2 mi NE 4.6 mph - N/A   Partly Cloudy
11:00 AM 37.4 °F 34.9 °F 30.2 °F 75% 30.51 in 6.2 mi ESE 3.5 mph - N/A   Partly Cloudy
11:30 AM 39.2 °F 35.9 °F 32.0 °F 75% 30.51 in 6.2 mi East 4.6 mph - N/A   Scattered Clouds
12:00 PM 39.2 °F 35.9 °F 32.0 °F 75% 30.51 in 6.2 mi ESE 4.6 mph - N/A   Scattered Clouds
12:30 PM 39.2 °F 37.0 °F 32.0 °F 75% 30.51 in 6.2 mi ENE 3.5 mph - N/A   Scattered Clouds
1:00 PM 41.0 °F 38.0 °F 32.0 °F 70% 30.51 in 6.2 mi NNE 4.6 mph - N/A   Partly Cloudy
1:30 PM 39.2 °F 35.9 °F 28.4 °F 65% 30.51 in - NE 4.6 mph - N/A   Clear
2:00 PM 41.0 °F 36.4 °F 28.4 °F 61% 30.51 in - East 6.9 mph - N/A   Clear
2:30 PM 39.2 °F 34.2 °F 28.4 °F 65% 30.51 in - East 6.9 mph - N/A   Clear
3:00 PM 39.2 °F 34.2 °F 26.6 °F 61% 30.51 in - East 6.9 mph - N/A   Clear
3:30 PM 37.4 °F 32.1 °F 26.6 °F 65% 30.51 in - East 6.9 mph - N/A   Clear
4:00 PM 35.6 °F 31.7 °F 26.6 °F 70% 30.51 in - East 4.6 mph - N/A   Clear
4:30 PM 32.0 °F 27.5 °F 26.6 °F 80% 30.51 in - ESE 4.6 mph - N/A   Clear
5:00 PM 32.0 °F 27.5 °F 28.4 °F 87% 30.51 in - East 4.6 mph - N/A   Clear
5:30 PM 32.0 °F 26.4 °F 28.4 °F 87% 30.51 in - East 5.8 mph - N/A   Clear
6:00 PM 28.4 °F 23.3 °F 26.6 °F 93% 30.51 in - ESE 4.6 mph - N/A   Clear
6:30 PM 30.2 °F 25.4 °F 26.6 °F 86% 30.51 in - SE 4.6 mph - N/A   Clear
7:00 PM 30.2 °F 24.3 °F 28.4 °F 93% 30.51 in - ESE 5.8 mph - N/A   Clear
7:30 PM 28.4 °F 21.2 °F 26.6 °F 93% 30.54 in - East 6.9 mph - N/A   Clear
8:00 PM 30.2 °F 21.9 °F 28.4 °F 93% 30.51 in - ESE 9.2 mph - N/A   Clear
9:00 PM 32.0 °F 26.4 °F 28.4 °F 87% 30.51 in - ESE 5.8 mph - N/A   Clear
10:00 PM 32.0 °F 24.8 °F 26.6 °F 80% 30.51 in - East 8.1 mph - N/A   Clear
11:00 PM 30.2 °F 24.3 °F 26.6 °F 86% 30.48 in - East 5.8 mph - N/A   Clear